Volver al catálogo

STARLINK-3120

ActivoComunicacionesVLEO
NORAD 49419·PAYLOAD·🇺🇸 United States

Lanzado Nov 13, 2021 desde Cape Canaveral Space Force Station

Loading…

Próximos Pases (próximas 24 horas)

TLE

ActualizadoSource: CelesTrak SupGP

Época: Sep 14, 2026, 21:13 UTC

1 49419C 21104M   26257.88451389 -.00692560  00000+0 -19994-1 0  2572
2 49419  53.1591  88.3310 0001274  75.4964 138.2084 15.35463454    12

Sigue STARLINK-3120 en tiempo real con AllMySat

Download on the App Store